Regional Weather Roundup
Issued by NWS

Home | Current Version | Previous Version | Text Only | Print | Product List | Glossary Off
Versions: 1 2 3 4 5 6 7 8 9 10 11 12 13 14 15 16 17 18 19 20 21 22 23 24 25 26 27 28 29 30 31 32 33 34 35 36 37 38 39 40 41 42 43 44 45 46 47 48 49 50

000
ASUS45 KBOU 260607
RWRCO

WEATHER ROUNDUP FOR COLORADO
NATIONAL WEATHER SERVICE DENVER/BOULDER CO
1100 PM MST THU DEC 25 2014

NOTE: "FAIR" INDICATES FEW OR NO CLOUDS BELOW 12000 FEET WITH NO
SIGNIFICANT WEATHER AND/OR OBSTRUCTIONS TO VISIBILITY.

COZ001>005-013-030-031-260700-
...NORTHWEST COLORADO...

CITY           SKY/WX    TMP DP  RH WIND       PRES   REMARKS
CRAIG          CLOUDY    21  18  88 SW13      29.68R WCI   9
HAYDEN         CLOUDY    21  19  93 W9        29.65R WCI  11
MEEKER         CLOUDY    24  18  77 NW7       29.66R WCI  16
MOUNT WERNER   NOT AVBL
STEAMBOAT SPGS CLOUDY    23  21  91 CALM      29.64R
WALDEN         CLOUDY    14  10  85 NE13      29.65R WCI   0
$$

COZ006>008-011-260700-
...WEST CENTRAL VALLEYS...

CITY           SKY/WX    TMP DP  RH WIND       PRES   REMARKS
GRAND JUNCTION FLURRIES  27  23  85 N7        29.70R WCI  19
MONTROSE       CLOUDY    26  24  92 NW3       29.70R
EAGLE          CLOUDY    25  25 100 S3        29.66R
RIFLE          CLOUDY    27  22  81 W12       29.67R WCI  17
DELTA          MOCLDY    27  25  91 CALM      29.71R
NUCLA          PTCLDY    23  21  93 SE3       29.73R
$$

COZ017>023-064>068-260700-
...SOUTHWEST COLORADO...

CITY           SKY/WX    TMP DP  RH WIND       PRES   REMARKS
DURANGO        PTCLDY    22  20  92 E6        29.67S WCI  14
CORTEZ         MOCLDY    21  17  84 E5        29.69R WCI  15
PAGOSA SPRINGS CLOUDY    25  24  99 S8        29.68R WCI  16
TELLURIDE      CLOUDY    16   9  75 CALM      29.63S
WOLF CREEK PAS CLOUDY     9   7  92 MISG      29.59S
$$

COZ009-010-012-014-032>034-037-058>063-260700-
...CENTRAL COLORADO...

CITY           SKY/WX    TMP DP  RH WIND       PRES   REMARKS
ASPEN          FLURRIES  23  21  92 N3        29.60R
BUENA VISTA    CLOUDY    24  17  74 E3        29.62S
COPPER MTN     LGT SNOW  14   9  79 S10G21    29.56S VSB 1   WCI   1
BERTHOUD PASS  LGT SNOW  -4  -8  84 MISG      29.58S
COTTONWOOD PAS CLOUDY    23  12  63 CALM      29.60S
GUNNISON       MOCLDY    14  10  85 CALM      29.66S
KREMMLING      LGT SNOW  21  18  86 NW7       29.68R WCI  13
LEADVILLE      FLURRIES  14  12  92 CALM      29.58S
MONARCH PASS   CLOUDY    10   7  85 MISG      29.68S
SALIDA         CLOUDY    30  19  62 SE5       29.70S WCI  25
SUNLIGHT       PTCLDY    12   9  85 MISG      29.59S
WILKERSON PASS LGT SNOW N/A N/A N/A SE9       29.62S
$$

COZ069>075-260700-
...SAN LUIS VALLEY/SANGRE DE CRISTO MOUNTAINS...

CITY           SKY/WX    TMP DP  RH WIND       PRES   REMARKS
ALAMOSA        MOCLDY    21  18  88 S7        29.65S WCI  12
LA VETA PASS   NOT AVBL
SAGUACHE       NOT AVBL
$$

COZ035-036-038>040-260700-
...NORTHERN COLORADO FRONT RANGE...

CITY           SKY/WX    TMP DP  RH WIND       PRES   REMARKS
DENVER INTL AP LGT SNOW  20  18  92 N15       29.85R FOG     WCI   6
DMNS CITY PARK   N/A     21  19  94 N7G15     29.86S WCI  12
AURORA         FLURRIES  20  19  98 N14       29.85R WCI   6
FRONT RANGE AP FLURRIES  23  21  93 N15       29.84R WCI  10
ERIE MUNI ARPT LGT SNOW  22  20  93 N8        29.89R WCI  13
BOULDER MUN AP LGT SNOW  23  21  93 N6        29.87R WCI  16
CENTENNIAL     LGT SNOW  20  19  96 N9        29.83R FOG     WCI   9
BROOMFIELD       N/A     21  21 100 N13       29.86R WCI   9
FORT COLLINS   MOCLDY    21  18  86 N15       29.90S WCI   8
LONGMONT       CLOUDY    24  20  85 N7        29.91R WCI  16
$$

COZ041-046-047-076>085-087-088-260700-
...PIKES PEAK/PALMER DIVIDE AND SOUTHERN FOOTHILLS...

CITY           SKY/WX    TMP DP  RH WIND       PRES   REMARKS
COLO. SPRINGS  LGT SNOW  24  16  71 N20G26    29.75R WCI  10
A. F. ACADEMY  CLOUDY    21  14  73 N22G29    29.74F WCI   5
ELLICOTT       NOT AVBL
FALCON         CLOUDY    20  16  86 N23G36    29.72R WCI   3
FORT CARSON    MIX PCPN  24  17  74 N23G37    29.72R WCI   9
LIMON          FRZ RAIN  22  20  92 N23G31    29.79R WCI   6
MONUMENT HILL  FLURRIES  18  16  93 N16       29.74S WCI   3
TRINIDAD       CLOUDY    28  26  92 NE13G22   29.76R WCI  17
$$

COZ042>045-048>051-090-091-260700-
...NORTHEAST COLORADO...

CITY           SKY/WX    TMP DP  RH WIND       PRES   REMARKS
GREELEY ARPT   MOCLDY    21  16  79 N9        29.89S WCI  11
AKRON          FLURRIES  21  19  92 N17       29.85R WCI   7
BURLINGTON     CLOUDY    26  23  88 N18       29.80R WCI  13
WRAY           CLOUDY    28  28  97 N15G21    29.86R FOG     WCI  17
STERLING       LGT SNOW  27  23  86 NE15G24   29.91R WCI  15
HOLYOKE        MIX PCPN  28  25  86 N14       29.88R WCI  17
FORT MORGAN    LGT SNOW  22  20  91 N22       29.86F WCI   6
$$

COZ086-089-092>099-260700-
...SOUTHEAST COLORADO...

CITY           SKY/WX    TMP DP  RH WIND       PRES   REMARKS
PUEBLO         CLOUDY    30  20  66 NE16      29.79R WCI  19
LA JUNTA       CLOUDY    31  27  85 N13       29.78R WCI  21
LAMAR          MOCLDY    30  25  81 NE14      29.75S WCI  19
SPRINGFIELD      N/A     28  25  88 N20       29.72R WCI  15
$$


USA.gov is the U.S. government's official web portal to all federal, state and local government web resources and services.